ETHC

Celle Air Base

Airport
ICAO code
ETHC
Summary
ICAO Region
EUR
ICAO Territory
Location

Celle, Lower Saxony,

Coordinates
52° 35' 23" N , 10° 1' 32" E
Metar
ETHC 190520Z 20010KT 8000 RA FEW011 BKN013 05/04 Q1006 GRN GRN TEMPO YLO

Description

Celle Air Base is a military airbase of the German Army. The airfield is situated south-west of the city of Celle, Lower Saxony, Germany.

Runways

Designator Length Width Surface Rops
8/26 1831 45 ASP No/No

Airport map

Aerial View

SKYbrary Partners:

Safety knowledge contributed by: